| time (UTC) | temp F | wind direction | speed MPH | gust MPH | rain 1hr in | rain 24hr in | rain mn in | humidity % | barometer mb |
| 20260508063054 | 61 | 146 | 0.0 | 0.0 | 0.00 | 0.00 | 0.00 | 81 | 1015.6 |
| 20260508061552 | 61 | 146 | 0.0 | 0.0 | 0.00 | 0.00 | 0.00 | 81 | 1015.7 |
| 20260508060055 | 61 | 146 | 0.0 | 0.0 | 0.00 | 0.00 | 0.00 | 80 | 1015.8 |
| 20260508054552 | 61 | 146 | 0.0 | 0.0 | 0.00 | 0.00 | 0.00 | 79 | 1015.7 |
| 20260508044531 | 62 | 146 | 0.0 | 0.0 | 0.00 | 0.00 | 0.00 | 76 | 1015.7 |
| 20260508043030 | 62 | 146 | 0.0 | 0.0 | 0.00 | 0.00 | 0.00 | 76 | 1015.5 |
| 20260508041530 | 62 | 146 | 0.0 | 0.0 | 0.00 | 0.00 | 0.00 | 76 | 1015.6 |
| 20260508040029 | 62 | 146 | 0.0 | 0.0 | 0.00 | 0.00 | 0.00 | 75 | 1015.5 |
| 20260508034538 | 62 | 146 | 0.0 | 0.0 | 0.00 | 0.00 | 0.00 | 75 | 1015.4 |
| 20260508024509 | 64 | 146 | 0.0 | 0.0 | 0.00 | 0.00 | 0.00 | 71 | 1015.2 |
| 20260508003059 | 68 | 122 | 0.0 | 3.0 | 0.00 | 0.00 | 0.00 | 62 | 1015.1 |
| 20260508001558 | 68 | 120 | 0.0 | 3.0 | 0.00 | 0.00 | 0.00 | 61 | 1015.2 |
| 20260508000056 | 68 | 134 | 0.0 | 3.0 | 0.00 | 0.00 | 0.00 | 60 | 1015.2 |
| 20260507234603 | 68 | 123 | 1.0 | 4.0 | 0.00 | 0.00 | 0.00 | 60 | 1015.1 |
| 20260507213016 | 72 | 62 | 0.0 | 4.0 | 0.00 | 0.00 | 0.00 | 52 | 1015.7 |
| 20260507211512 | 72 | 84 | 1.0 | 5.0 | 0.00 | 0.00 | 0.00 | 51 | 1016.0 |
| 20260507210010 | 72 | 73 | 0.0 | 5.0 | 0.00 | 0.00 | 0.00 | 51 | 1015.9 |
| 20260507204509 | 72 | 60 | 1.0 | 4.0 | 0.00 | 0.00 | 0.00 | 50 | 1015.8 |
| 20260507203008 | 73 | 13 | 0.0 | 4.0 | 0.00 | 0.00 | 0.00 | 51 | 1015.9 |
| 20260507201506 | 72 | 98 | 0.0 | 4.0 | 0.00 | 0.00 | 0.00 | 52 | 1016.3 |
| 20260507200004 | 72 | 83 | 1.0 | 4.0 | 0.00 | 0.00 | 0.00 | 50 | 1016.6 |
| 20260507194501 | 73 | 147 | 0.0 | 2.0 | 0.00 | 0.00 | 0.00 | 50 | 1016.9 |
| 20260507193102 | 73 | 99 | 2.0 | 5.0 | 0.00 | 0.00 | 0.00 | 50 | 1017.0 |
| 20260507191557 | 72 | 77 | 1.0 | 4.0 | 0.00 | 0.00 | 0.00 | 50 | 1017.3 |
| 20260507190054 | 72 | 65 | 1.0 | 5.0 | 0.00 | 0.00 | 0.00 | 50 | 1017.3 |
| 20260507184553 | 72 | 72 | 0.0 | 5.0 | 0.00 | 0.00 | 0.00 | 49 | 1017.5 |
| 20260507183053 | 71 | 97 | 1.0 | 7.0 | 0.00 | 0.00 | 0.00 | 51 | 1017.6 |
| 20260507181549 | 71 | 319 | 0.0 | 4.0 | 0.00 | 0.00 | 0.00 | 49 | 1017.8 |
| 20260507180045 | 70 | 75 | 0.0 | 4.0 | 0.00 | 0.00 | 0.00 | 53 | 1018.0 |
| 20260507174549 | 69 | 307 | 1.0 | 6.0 | 0.00 | 0.00 | 0.00 | 52 | 1018.1 |
| 20260507163044 | 69 | 5 | 0.0 | 2.0 | 0.00 | 0.01 | 0.00 | 56 | 1019.7 |
| 20260507161543 | 68 | 27 | 0.0 | 2.0 | 0.00 | 0.01 | 0.00 | 57 | 1019.8 |
| 20260507160041 | 68 | 307 | 0.0 | 3.0 | 0.00 | 0.01 | 0.00 | 58 | 1019.6 |
| 20260507154539 | 67 | 72 | 0.0 | 4.0 | 0.00 | 0.01 | 0.00 | 59 | 1019.6 |
| 20260507153037 | 67 | 326 | 0.0 | 3.0 | 0.00 | 0.01 | 0.00 | 60 | 1020.0 |
| 20260507151540 | 66 | 299 | 0.0 | 3.0 | 0.00 | 0.01 | 0.00 | 61 | 1020.0 |
| 20260507150031 | 66 | 330 | 0.0 | 3.0 | 0.00 | 0.01 | 0.00 | 61 | 1020.3 |
| 20260507144534 | 66 | 339 | 0.0 | 3.0 | 0.00 | 0.01 | 0.00 | 62 | 1020.4 |
| 20260507143028 | 65 | 44 | 0.0 | 3.0 | 0.00 | 0.01 | 0.00 | 66 | 1020.2 |
| 20260507141528 | 65 | 18 | 0.0 | 2.0 | 0.00 | 0.01 | 0.00 | 67 | 1020.4 |
| 20260507140027 | 65 | 9 | 0.0 | 0.0 | 0.00 | 0.01 | 0.00 | 66 | 1020.5 |
| 20260507134534 | 63 | 9 | 0.0 | 0.0 | 0.00 | 0.01 | 0.00 | 72 | 1020.8 |
| 20260507133018 | 61 | 9 | 0.0 | 0.0 | 0.00 | 0.01 | 0.00 | 76 | 1020.8 |
| 20260507131524 | 60 | 10 | 0.0 | 0.0 | 0.00 | 0.01 | 0.00 | 78 | 1020.8 |
| 20260507130012 | 58 | 11 | 0.0 | 0.0 | 0.00 | 0.01 | 0.00 | 83 | 1020.7 |
| 20260507124512 | 55 | 10 | 0.0 | 0.0 | 0.00 | 0.01 | 0.00 | 89 | 1020.7 |
| 20260507123017 | 53 | 11 | 0.0 | 0.0 | 0.00 | 0.01 | 0.00 | 92 | 1020.4 |
| 20260507121508 | 52 | 10 | 0.0 | 0.0 | 0.00 | 0.01 | 0.00 | 92 | 1020.5 |
| 20260507120005 | 0 | 0.0 | 0.0 | 0.00 | 0.01 | 0.00 | 1020.4 | ||
| 20260507114602 | 0 | 0.0 | 0.0 | 0.00 | 0.01 | 0.00 | 1020.3 | ||
| 20260507113054 | 0 | 0.0 | 0.0 | 0.00 | 0.01 | 0.00 | 1019.9 | ||
| 20260507111549 | 0 | 0.0 | 0.0 | 0.00 | 0.01 | 0.00 | 1019.8 | ||
| 20260507110100 | 0 | 0.0 | 0.0 | 0.00 | 0.01 | 0.00 | 1019.7 | ||
| 20260507104541 | 0 | 0.0 | 0.0 | 0.00 | 0.01 | 0.00 | 1019.0 | ||
| 20260507094515 | 53 | 10 | 0.0 | 0.0 | 0.00 | 0.01 | 0.00 | 89 | 1018.3 |
| 20260507093014 | 53 | 11 | 0.0 | 0.0 | 0.00 | 0.01 | 0.00 | 89 | 1018.3 |
| 20260507091511 | 53 | 11 | 0.0 | 0.0 | 0.00 | 0.01 | 0.00 | 88 | 1018.1 |
| 20260507090010 | 54 | 10 | 0.0 | 0.0 | 0.00 | 0.01 | 0.00 | 88 | 1017.8 |
| 20260507084506 | 54 | 11 | 0.0 | 2.0 | 0.00 | 0.01 | 0.00 | 87 | 1018.0 |
| 20260507083004 | 55 | 340 | 0.0 | 2.0 | 0.00 | 0.01 | 0.00 | 86 | 1017.8 |
| 20260507081506 | 55 | 13 | 0.0 | 2.0 | 0.00 | 0.01 | 0.00 | 86 | 1017.9 |
| 20260507080100 | 55 | 4 | 0.0 | 0.0 | 0.00 | 0.01 | 0.00 | 86 | 1017.7 |
| 20260507074559 | 56 | 107 | 0.0 | 4.0 | 0.00 | 0.01 | 0.00 | 85 | 1017.3 |